H1 CPF 2 NER 2022 1 22 9 022 01 glonass140 H2 1903001 9140 44299 2022 1 22 0 0 0 2022 1 25 23 45 0 900 1 1 0 0 0 1 H9 10 0 59601 0.00000 0 10508591.446 -21628620.619 8569340.908 10 0 59601 900.00000 0 10880515.656 -22421746.483 5518202.416 10 0 59601 1800.00000 0 11003910.432 -22908643.784 2360087.181 10 0 59601 2700.00000 0 10919568.896 -23051848.829 -843791.528 10 0 59601 3600.00000 0 10675618.996 -22824923.694 -4031299.563 10 0 59601 4500.00000 0 10325270.563 -22213680.407 -7140583.015 10 0 59601 5400.00000 0 9924356.053 -21216911.191 -10111266.732 10 0 59601 6300.00000 0 9528768.814 -19846592.682 -12885626.986 10 0 59601 7200.00000 0 9191907.253 -18127553.933 -15409715.223 10 0 59601 8100.00000 0 8962233.256 -16096620.497 -17634410.851 10 0 59601 9000.00000 0 8881048.640 -13801268.704 -19516382.237 10 0 59601 9900.00000 0 8980584.409 -11297845.045 -21018936.735 10 0 59601 10800.00000 0 9282484.558 -8649423.700 -22112742.865 10 0 59601 11700.00000 0 9796749.669 -5923390.601 -22776410.067 10 0 59601 12600.00000 0 10521186.218 -3188854.077 -22996914.250 10 0 59601 13500.00000 0 11441386.207 -513989.449 -22769860.321 10 0 59601 14400.00000 0 12531239.352 2036572.088 -22099575.977 10 0 59601 15300.00000 0 13753957.422 4404201.592 -20999034.354 10 0 59601 16200.00000 0 15063568.559 6538475.136 -19489606.455 10 0 59601 17100.00000 0 16406819.296 8399029.444 -17600647.635 10 0 59601 18000.00000 0 17725404.405 9956993.062 -15368925.882 10 0 59601 18900.00000 0 18958430.516 11195933.675 -12837902.841 10 0 59601 19800.00000 0 20045009.262 12112282.667 -10056881.651 10 0 59601 20700.00000 0 20926869.826 12715220.082 -7080038.651 10 0 59601 21600.00000 0 21550879.866 13026026.319 -3965358.471 10 0 59601 22500.00000 0 21871367.515 13076929.510 -773494.151 10 0 59601 23400.00000 0 21852145.658 12909499.084 2433424.335 10 0 59601 24300.00000 0 21468152.469 12572655.346 5593008.800 10 0 59601 25200.00000 0 20706638.683 12120381.101 8643834.007 10 0 59601 26100.00000 0 19567851.503 11609233.785 11526636.505 10 0 59601 27000.00000 0 18065186.621 11095764.679 14185467.238 10 0 59601 27900.00000 0 16224802.330 10633955.273 16568775.301 10 0 59601 28800.00000 0 14084712.491 10272779.516 18630401.925 10 0 59601 29700.00000 0 11693396.806 10053994.874 20330466.046 10 0 59601 30600.00000 0 9107986.758 10010254.887 21636125.265 10 0 59601 31500.00000 0 6392102.978 10163621.997 22522198.660 10 0 59601 32400.00000 0 3613433.739 10524542.323 22971640.776 10 0 59601 33300.00000 0 841154.438 11091324.560 22975859.015 10 0 59601 34200.00000 0 -1856705.828 11850144.174 22534869.429 10 0 59601 35100.00000 0 -4415842.887 12775572.229 21657288.894 10 0 59601 36000.00000 0 -6778096.132 13831606.630 20360164.354 10 0 59601 36900.00000 0 -8893608.650 14973162.794 18668642.621 10 0 59601 37800.00000 0 -10722641.119 16147961.961 16615486.896 10 0 59601 38700.00000 0 -12236965.864 17298738.857 14240448.756 10 0 59601 39600.00000 0 -13420784.567 18365677.177 11589506.954 10 0 59601 40500.00000 0 -14271132.644 19288971.717 8713986.769 10 0 59601 41400.00000 0 -14797754.363 20011410.499 5669575.857 10 0 59601 42300.00000 0 -15022454.431 20480868.981 2515254.774 10 0 59601 43200.00000 0 -14977953.634 20652611.769 -687837.981 10 0 59601 44100.00000 0 -14706296.607 20491304.845 -3877585.073 10 0 59601 45000.00000 0 -14256878.686 19972653.017 -6992091.010 10 0 59601 45900.00000 0 -13684174.800 19084592.704 -9970881.358 10 0 59601 46800.00000 0 -13045266.082 17827988.436 -12756077.175 10 0 59601 47700.00000 0 -12397268.550 16216802.181 -15293521.643 10 0 59601 48600.00000 0 -11794772.507 14277726.512 -17533836.739 10 0 59601 49500.00000 0 -11287401.108 12049295.076 -19433389.102 10 0 59601 50400.00000 0 -10917591.642 9580505.822 -20955145.818 10 0 59601 51300.00000 0 -10718693.889 6929012.874 -22069403.108 10 0 59601 52200.00000 0 -10713466.629 4158961.095 -22754373.283 10 0 59601 53100.00000 0 -10913036.719 1338552.607 -22996617.972 10 0 59601 54000.00000 0 -11316365.672 -1462554.158 -22791318.717 10 0 59601 54900.00000 0 -11910247.255 -4175905.095 -22142379.059 10 0 59601 55800.00000 0 -12669837.156 -6736860.144 -21062355.509 10 0 59601 56700.00000 0 -13559693.151 -9087043.522 -19572218.211 10 0 59601 57600.00000 0 -14535282.437 -11176532.390 -17700945.392 10 0 59601 58500.00000 0 -15544892.766 -12965692.636 -15484959.150 10 0 59601 59400.00000 0 -16531866.600 -14426585.317 -12967413.413 10 0 59601 60300.00000 0 -17437063.551 -15543885.380 -10197347.932 10 0 59601 61200.00000 0 -18201446.344 -16315274.867 -7228725.263 10 0 59601 62100.00000 0 -18768680.135 -16751295.233 -4119370.111 10 0 59601 63000.00000 0 -19087634.307 -16874666.448 -929832.581 10 0 59601 63900.00000 0 -19114680.020 -16719103.252 2277801.322 10 0 59601 64800.00000 0 -18815685.585 -16327680.405 5441127.679 10 0 59601 65700.00000 0 -18167624.764 -15750817.864 8498646.283 10 0 59601 66600.00000 0 -17159729.801 -15043972.784 11390961.127 10 0 59601 67500.00000 0 -15794140.502 -14265137.394 14061935.810 10 0 59601 68400.00000 0 -14086022.193 -13472249.545 16459781.154 10 0 59601 69300.00000 0 -12063147.922 -12720625.896 18538054.006 10 0 59601 70200.00000 0 -9764962.715 -12060526.145 20256548.492 10 0 59601 71100.00000 0 -7241169.208 -11534950.565 21582063.409 10 0 59601 72000.00000 0 -4549893.755 -11177762.778 22489032.059 10 0 59601 72900.00000 0 -1755509.090 -11012215.667 22960003.745 10 0 59601 73800.00000 0 1073796.653 -11049941.142 22985968.955 10 0 59601 74700.00000 0 3868604.490 -11290445.031 22566523.160 10 0 59601 75600.00000 0 6560896.965 -11721127.343 21709866.998 10 0 59601 76500.00000 0 9086630.777 -12317826.409 20432643.429 10 0 59601 77400.00000 0 11388144.727 -13045863.823 18759615.177 10 0 59601 78300.00000 0 13416304.896 -13861546.505 16723188.528 10 0 59601 79200.00000 0 15132299.749 -14714063.334 14362792.057 10 0 59601 80100.00000 0 16509011.959 -15547697.449 11724121.560 10 0 59601 81000.00000 0 17531911.140 -16304262.132 8858264.791 10 0 59601 81900.00000 0 18199431.205 -16925658.711 5820721.873 10 0 59601 82800.00000 0 18522817.123 -17356449.477 2670339.462 10 0 59601 83700.00000 0 18525447.895 -17546337.729 -531821.552 10 0 59601 84600.00000 0 18241664.168 -17452450.440 -3723663.544 10 0 59601 85500.00000 0 17715149.663 -17041326.973 -6843252.326 10 0 59602 0.00000 0 16996934.355 -16290529.255 -9830016.695 10 0 59602 900.00000 0 16143102.849 -15189803.837 -12625925.667 10 0 59602 1800.00000 0 15212305.356 -13741746.395 -15176616.286 10 0 59602 2700.00000 0 14263174.807 -11961937.489 -17432455.269 10 0 59602 3600.00000 0 13351760.045 -9878542.729 -19349509.410 10 0 59602 4500.00000 0 12529083.156 -7531391.757 -20890407.081 10 0 59602 5400.00000 0 11838924.403 -4970572.652 -22025073.413 10 0 59602 6300.00000 0 11315928.613 -2254598.702 -22731324.385 10 0 59602 7200.00000 0 10984113.490 551777.335 -22995307.743 10 0 59602 8100.00000 0 10855843.389 3380011.548 -22811781.652 10 0 59602 9000.00000 0 10931312.490 6160378.584 -22184225.065 10 0 59602 9900.00000 0 11198559.811 8824634.446 -21124777.074 10 0 59602 10800.00000 0 11634015.900 11308621.725 -19654005.814 10 0 59602 11700.00000 0 12203558.492 13554708.738 -17800510.903 10 0 59602 12600.00000 0 12864032.606 15513960.703 -15600366.778 10 0 59602 13500.00000 0 13565170.681 17147952.324 -13096417.570 10 0 59602 14400.00000 0 14251831.073 18430146.152 -10337437.297 10 0 59602 15300.00000 0 14866459.503 19346779.352 -7377172.125 10 0 59602 16200.00000 0 15351668.282 19897222.460 -4273284.015 10 0 59602 17100.00000 0 15652823.113 20093796.180 -1086217.177 10 0 59602 18000.00000 0 15720526.829 19961055.323 2121989.402 10 0 59602 18900.00000 0 15512893.964 19534571.789 5288919.086 10 0 59602 19800.00000 0 14997519.115 18859269.734 8352999.604 10 0 59602 20700.00000 0 14153055.350 17987384.942 11254705.117 10 0 59602 21600.00000 0 12970335.697 16976136.155 13937714.358 10 0 59602 22500.00000 0 11452990.383 15885207.889 16350002.065 10 0 59602 23400.00000 0 9617533.953 14774151.703 18444842.596 10 0 59602 24300.00000 0 7492918.775 13699815.764 20181706.859 10 0 59602 25200.00000 0 5119573.711 12713910.632 21527036.106 10 0 59602 26100.00000 0 2547968.149 11860812.959 22454878.788 10 0 59602 27000.00000 0 -163239.012 11175698.217 22947379.507 10 0 59602 27900.00000 0 -2949389.047 10683079.465 22995111.999 10 0 59602 28800.00000 0 -5742261.572 10395811.978 22597250.876 10 0 59602 29700.00000 0 -8472661.287 10314604.095 21761579.808 10 0 59602 30600.00000 0 -11073047.525 10428053.628 20504336.567 10 0 59602 31500.00000 0 -13480099.115 10713207.483 18849898.141 10 0 59602 32400.00000 0 -15637109.932 11136620.623 16830311.822 10 0 59602 33300.00000 0 -17496117.326 11655869.884 14484680.774 10 0 59602 34200.00000 0 -19019676.406 12221459.396 11858415.165 10 0 59602 35100.00000 0 -20182207.562 12779038.082 9002362.389 10 0 59602 36000.00000 0 -20970862.006 13271836.563 5971832.138 10 0 59602 36900.00000 0 -21385869.697 13643221.489 2825534.279 10 0 59602 37800.00000 0 -21440355.430 13839260.088 -375550.736 10 0 59602 38700.00000 0 -21159630.794 13811186.912 -3569347.732 10 0 59602 39600.00000 0 -20579991.498 13517668.507 -6693886.459 10 0 59602 40500.00000 0 -19747070.301 12926769.822 -9688501.979 10 0 59602 41400.00000 0 -18713814.441 12017538.291 -12495012.537 10 0 59602 42300.00000 0 -17538172.330 10781137.405 -15058851.764 10 0 59602 43200.00000 0 -16280586.634 9221480.177 -17330133.029 10 0 59602 44100.00000 0 -15001399.125 7355333.819 -19264624.898 10 0 59602 45000.00000 0 -13758276.567 5211889.075 -20824618.312 10 0 59602 45900.00000 0 -12603766.080 2831810.102 -21979668.203 10 0 59602 46800.00000 0 -11583083.143 265802.571 -22707194.733 10 0 59602 47700.00000 0 -10732225.639 -2427241.887 -22992931.863 10 0 59602 48600.00000 0 -10076493.724 -5182448.973 -22831214.075 10 0 59602 49500.00000 0 -9629478.175 -7931421.984 -22225095.041 10 0 59602 50400.00000 0 -9392560.198 -10604857.173 -21186295.332 10 0 59602 51300.00000 0 -9354943.975 -13135205.611 -19734979.617 10 0 59602 52200.00000 0 -9494220.659 -15459270.699 -17899367.114 10 0 59602 53100.00000 0 -9777439.863 -17520632.780 -15715182.521 10 0 59602 54000.00000 0 -10162643.027 -19271799.495 -13224957.889 10 0 59602 54900.00000 0 -10600793.180 -20675991.840 -10477199.070 10 0 59602 55800.00000 0 -11038018.574 -21708491.180 -7525433.342 10 0 59602 56700.00000 0 -11418074.122 -22357491.107 -4427157.395 10 0 59602 57600.00000 0 -11684915.153 -22624419.093 -1242707.027 10 0 59602 58500.00000 0 -11785273.209 -22523715.422 1965928.263 10 0 59602 59400.00000 0 -11671123.588 -22082080.141 5136321.571 10 0 59602 60300.00000 0 -11301939.111 -21337221.342 8206830.972 10 0 59602 61200.00000 0 -10646633.983 -20336159.224 11117803.147 10 0 59602 62100.00000 0 -9685115.086 -19133159.070 13812734.227 10 0 59602 63000.00000 0 -8409374.940 -17787381.604 16239364.998 10 0 59602 63900.00000 0 -6824080.275 -16360350.702 18350689.249 10 0 59602 64800.00000 0 -4946631.521 -14913345.536 20105856.308 10 0 59602 65700.00000 0 -2806690.728 -13504826.704 21470951.201 10 0 59602 66600.00000 0 -445197.720 -12188003.888 22419638.461 10 0 59602 67500.00000 0 2087084.730 -11008645.993 22933658.543 10 0 59602 68400.00000 0 4731436.598 -10003224.114 23003168.578 10 0 59602 69300.00000 0 7423380.318 -9197463.470 22626922.099 10 0 59602 70200.00000 0 10095124.251 -8605363.265 21812285.240 10 0 59602 71100.00000 0 12678149.878 -8228723.879 20575089.703 10 0 59602 72000.00000 0 15105836.795 -8057199.940 18939325.576 10 0 59602 72900.00000 0 17316018.226 -8068876.044 16936679.729 10 0 59602 73800.00000 0 19253362.518 -8231340.439 14605928.212 10 0 59602 74700.00000 0 20871482.921 -8503211.435 11992193.597 10 0 59602 75600.00000 0 22134689.123 -8836052.543 9146080.688 10 0 59602 76500.00000 0 23019308.355 -9176596.141 6122706.240 10 0 59602 77400.00000 0 23514521.435 -9469182.461 2980640.599 10 0 59602 78300.00000 0 23622679.036 -9658311.509 -219219.143 10 0 59602 79200.00000 0 23359084.849 -9691200.421 -3414823.277 10 0 59602 80100.00000 0 22751254.429 -9520238.265 -6544168.498 10 0 59602 81000.00000 0 21837680.364 -9105234.209 -9546498.779 10 0 59602 81900.00000 0 20666155.113 -8415363.254 -12363484.845 10 0 59602 82800.00000 0 19291721.447 -7430726.219 -14940359.102 10 0 59602 83700.00000 0 17774336.171 -6143456.562 -17226983.738 10 0 59602 84600.00000 0 16176344.953 -4558325.455 -19178830.953 10 0 59602 85500.00000 0 14559874.164 -2692817.585 -20757855.777 10 0 59603 0.00000 0 12984249.348 -576672.427 -21933244.066 10 0 59603 900.00000 0 11503547.948 1749093.154 -22682021.217 10 0 59603 1800.00000 0 10164391.305 4233639.151 -22989507.773 10 0 59603 2700.00000 0 9004066.023 6818178.287 -22849614.639 10 0 59603 3600.00000 0 8049055.899 9438193.798 -22264969.925 10 0 59603 4500.00000 0 7314045.430 12025908.605 -21246875.025 10 0 59603 5400.00000 0 6801436.922 14512903.309 -19815090.107 10 0 59603 6300.00000 0 6501401.411 16832773.996 -17997452.591 10 0 59603 7200.00000 0 6392460.909 18923718.755 -15829335.684 10 0 59603 8100.00000 0 6442576.852 20730944.612 -13352957.275 10 0 59603 9000.00000 0 6610697.935 22208793.896 -10616552.641 10 0 59603 9900.00000 0 6848700.864 23322500.677 -7673427.474 10 0 59603 10800.00000 0 7103640.640 24049503.661 -4580910.254 10 0 59603 11700.00000 0 7320213.650 24380260.676 -1399225.250 10 0 59603 12600.00000 0 7443327.833 24318531.125 1809690.756 10 0 59603 13500.00000 0 7420669.591 23881115.545 4983403.811 10 0 59603 14400.00000 0 7205157.477 23097064.535 8060205.463 10 0 59603 15300.00000 0 6757177.799 22006391.822 10980317.860 10 0 59603 16200.00000 0 6046506.855 20658347.209 13687057.227 10 0 59603 17100.00000 0 5053838.145 19109323.449 16127932.794 10 0 59603 18000.00000 0 3771850.012 17420486.243 18255659.852 10 0 59603 18900.00000 0 2205768.738 15655227.595 20029067.879 10 0 59603 19800.00000 0 373403.467 13876549.598 21413887.031 10 0 59603 20700.00000 0 -1695348.447 12144487.964 22383398.904 10 0 59603 21600.00000 0 -3959505.163 10513682.290 22918940.374 10 0 59603 22500.00000 0 -6368471.659 9031193.319 23010252.100 10 0 59603 23400.00000 0 -8863917.921 7734656.827 22655666.194 10 0 59603 24300.00000 0 -11381986.874 6650849.397 21862130.424 10 0 59603 25200.00000 0 -13855741.506 5794724.164 20645069.095 10 0 59603 26100.00000 0 -16217750.861 5168955.175 19028083.554 10 0 59603 27000.00000 0 -18402709.012 4764007.971 17042497.969 10 0 59603 27900.00000 0 -20349979.671 4558732.388 14726758.596 10 0 59603 28800.00000 0 -22005961.874 4521452.097 12125697.432 10 0 59603 29700.00000 0 -23326179.417 4611504.831 9289673.507 10 0 59603 30600.00000 0 -24277007.767 4781168.574 6273607.376 10 0 59603 31500.00000 0 -24836966.780 4977892.865 3135926.604 10 0 59603 32400.00000 0 -24997525.373 5146741.441 -62558.234 10 0 59603 33300.00000 0 -24763384.261 5232943.376 -3259825.914 10 0 59603 34200.00000 0 -24152224.464 5184445.058 -6393842.916 10 0 59603 35100.00000 0 -23193931.513 4954354.924 -9403764.781 10 0 59603 36000.00000 0 -21929327.171 4503177.101 -12231117.158 10 0 59603 36900.00000 0 -20408461.150 3800738.617 -14820933.410 10 0 59603 37800.00000 0 -18688533.856 2827727.485 -17122826.448 10 0 59603 38700.00000 0 -16831536.698 1576775.101 -19091973.651 10 0 59603 39600.00000 0 -14901708.561 53035.392 -20689995.283 10 0 59603 40500.00000 0 -12962914.769 -1725765.745 -21885708.972 10 0 59603 41400.00000 0 -11076058.219 -3729815.051 -22655745.137 10 0 59603 42300.00000 0 -9296631.205 -5918212.291 -22985010.868 10 0 59603 43200.00000 0 -7672510.458 -8240446.464 -22866992.754 10 0 59603 44100.00000 0 -6242087.878 -10638287.756 -22303892.170 10 0 59603 45000.00000 0 -5032815.364 -13048017.290 -21306589.773 10 0 59603 45900.00000 0 -4060224.669 -15402902.381 -19894439.333 10 0 59603 46800.00000 0 -3327463.188 -17635814.248 -18094894.297 10 0 59603 47700.00000 0 -2825364.773 -19681878.743 -15942973.999 10 0 59603 48600.00000 0 -2533051.886 -21481048.965 -13480579.631 10 0 59603 49500.00000 0 -2419042.737 -22980491.647 -10755673.293 10 0 59603 50400.00000 0 -2442815.486 -24136686.763 -7821336.465 10 0 59603 51300.00000 0 -2556761.984 -24917151.952 -4734726.837 10 0 59603 52200.00000 0 -2708446.783 -25301719.205 -1555954.630 10 0 59603 53100.00000 0 -2843074.170 -25283310.317 1653098.503 10 0 59603 54000.00000 0 -2906057.114 -24868179.047 4829993.896 10 0 59603 54900.00000 0 -2845577.814 -24075610.721 7912958.797 10 0 59603 55800.00000 0 -2615030.266 -22937093.046 10842092.954 10 0 59603 56700.00000 0 -2175240.511 -21494994.391 13560534.700 10 0 59603 57600.00000 0 -1496370.149 -19800806.373 16015563.557 10 0 59603 58500.00000 0 -559422.492 -17913025.751 18159617.966 10 0 59603 59400.00000 0 642712.174 -15894765.312 19951208.932 10 0 59603 60300.00000 0 2104716.114 -13811194.199 21355712.808 10 0 59603 61200.00000 0 3808830.998 -11726914.706 22346028.974 10 0 59603 62100.00000 0 5725372.667 -9703384.476 22903091.065 10 0 59603 63000.00000 0 7813752.495 -7796490.513 23016223.242 10 0 59603 63900.00000 0 10023963.134 -6054374.706 22683335.823 10 0 59603 64800.00000 0 12298467.515 -4515599.640 21910957.497 10 0 59603 65700.00000 0 14574413.497 -3207729.203 20714104.173 10 0 59603 66600.00000 0 16786083.210 -2146381.322 19115987.207 10 0 59603 67500.00000 0 18867476.598 -1334790.587 17147566.569 10 0 59603 68400.00000 0 20754923.065 -763897.624 14846957.013 10 0 59603 69300.00000 0 22389613.730 -412960.404 12258698.032 10 0 59603 70200.00000 0 23719949.872 -250661.179 9432900.744 10 0 59603 71100.00000 0 24703610.416 -236662.202 6424287.155 10 0 59603 72000.00000 0 25309252.502 -323544.788 3291139.503 10 0 59603 72900.00000 0 25517774.156 -459050.125 94179.147 10 0 59603 73800.00000 0 25323085.937 -588527.508 -3104603.962 10 0 59603 74700.00000 0 24732358.658 -657486.739 -6243148.891 10 0 59603 75600.00000 0 23765736.014 -614146.767 -9260525.448 10 0 59603 76500.00000 0 22455523.210 -411872.498 -12098116.742 10 0 59603 77400.00000 0 20844884.651 -11396.123 -14700759.396 10 0 59603 78300.00000 0 18986104.325 617271.918 -17017819.066 10 0 59603 79200.00000 0 16938480.905 1493324.390 -19004180.052 10 0 59603 80100.00000 0 14765945.055 2624096.868 -20621129.321 10 0 59603 81000.00000 0 12534498.159 4004512.041 -21837117.394 10 0 59603 81900.00000 0 10309579.196 5617054.198 -22628380.866 10 0 59603 82800.00000 0 8153469.754 7432276.978 -22979413.926 10 0 59603 83700.00000 0 6122845.534 9409825.036 -22883279.224 10 0 59603 84600.00000 0 4266576.654 11499928.602 -22341751.449 10 0 59603 85500.00000 0 2623868.770 13645309.629 -21365290.213 10 0 59604 0.00000 0 1222822.771 15783420.607 -19972842.335 10 0 59604 900.00000 0 79472.392 17848924.058 -18191475.952 10 0 59604 1800.00000 0 -802658.476 19776306.111 -16055855.136 10 0 59604 2700.00000 0 -1432463.420 21502518.331 -13607562.504 10 0 59604 3600.00000 0 -1830629.041 22969533.706 -10894284.733 10 0 59604 4500.00000 0 -2028506.728 24126710.034 -7968876.523 10 0 59604 5400.00000 0 -2066529.669 24932860.691 -4888321.916 10 0 59604 6300.00000 0 -1992243.693 25357945.263 -1712614.025 10 0 59604 7200.00000 0 -1858037.007 25384308.703 1496423.839 10 0 59604 8100.00000 0 -1718666.727 25007417.010 4676351.542 10 0 59604 9000.00000 0 -1628688.601 24236058.919 7765335.260 10 0 59604 9900.00000 0 -1639900.170 23092005.925 10703355.435 10 0 59604 10800.00000 0 -1798906.700 21609145.956 13433375.409 10 0 59604 11700.00000 0 -2144913.564 19832128.192 15902447.658 10 0 59604 12600.00000 0 -2707838.710 17814577.002 18062736.132 10 0 59604 13500.00000 0 -3506824.884 15616950.689 19872435.413 10 0 59604 14400.00000 0 -4549214.164 13304135.131 21296569.746 10 0 59604 15300.00000 0 -5830027.602 10942872.954 22307657.602 10 0 59604 16200.00000 0 -7331971.646 8599135.038 22886230.278 10 0 59604 17100.00000 0 -9025971.010 6335542.896 23021195.883 10 0 59604 18000.00000 0 -10872205.867 4208947.915 22710042.883 10 0 59604 18900.00000 0 -12821610.544 2268266.428 21958880.326 10 0 59604 19800.00000 0 -14817772.011 552658.700 20782314.595 10 0 59604 20700.00000 0 -16799149.986 -909874.287 19203165.396 10 0 59604 21600.00000 0 -18701527.402 -2103419.772 17252026.317 10 0 59604 22500.00000 0 -20460590.373 -3024570.837 14966677.967 10 0 59604 23400.00000 0 -22014531.309 -3682316.605 12391364.314 10 0 59604 24300.00000 0 -23306567.626 -4097410.655 9575945.257 10 0 59604 25200.00000 0 -24287271.687 -4301244.803 6574940.779 10 0 59604 26100.00000 0 -24916615.009 -4334275.826 3446484.259 10 0 59604 27000.00000 0 -25165641.279 -4244071.423 251204.346 10 0 59604 27900.00000 0 -25017697.814 -4083057.706 -2948943.666 10 0 59604 28800.00000 0 -24469173.202 -3906063.100 -6091874.652 10 0 59604 29700.00000 0 -23529709.258 -3767762.415 -9116575.708 10 0 59604 30600.00000 0 -22221877.266 -3720129.233 -11964290.194 10 0 59604 31500.00000 0 -20580330.867 -3810004.686 -14579660.505 10 0 59604 32400.00000 0 -18650469.844 -4076886.123 -16911807.233 10 0 59604 33300.00000 0 -16486669.574 -4551030.071 -18915323.399 10 0 59604 34200.00000 0 -14150149.285 -5251950.907 -20551164.010 10 0 59604 35100.00000 0 -11706567.374 -6187380.132 -21787413.297 10 0 59604 36000.00000 0 -9223443.609 -7352731.877 -22599914.284 10 0 59604 36900.00000 0 -6767515.496 -8731098.967 -22972747.942 10 0 59604 37800.00000 0 -4402138.804 -10293781.549 -22898552.116 10 0 59604 38700.00000 0 -2184840.591 -12001327.833 -22378673.450 10 0 59604 39600.00000 0 -165126.833 -13805044.644 -21423148.718 10 0 59604 40500.00000 0 1617363.941 -15648915.588 -20050515.352 10 0 59604 41400.00000 0 3134284.036 -17471847.087 -18287454.239 10 0 59604 42300.00000 0 4369517.743 -19210148.286 -16168271.322 10 0 59604 43200.00000 0 5319601.485 -20800140.696 -13734227.827 10 0 59604 44100.00000 0 5993606.201 -22180787.515 -11032732.097 10 0 59604 45000.00000 0 6412488.088 -23296231.434 -8116409.095 10 0 59604 45900.00000 0 6607936.569 -24098133.450 -5042066.271 10 0 59604 46800.00000 0 6620769.819 -24547713.538 -1869576.741 10 0 59604 47700.00000 0 6498947.476 -24617406.684 1339297.311 10 0 59604 48600.00000 0 6295286.527 -24292064.280 4522116.939 10 0 59604 49500.00000 0 6064978.830 -23569650.332 7616989.715 10 0 59604 50400.00000 0 5863016.966 -22461403.556 10563779.050 10 0 59604 51300.00000 0 5741638.641 -20991459.232 13305275.333 10 0 59604 52200.00000 0 5747898.665 -19195947.498 15788305.760 10 0 59604 53100.00000 0 5921471.560 -17121606.859 17964761.246 10 0 59604 54000.00000 0 6292777.677 -14823971.737 19792521.054 10 0 59604 54900.00000 0 6881511.585 -12365210.377 21236258.051 10 0 59604 55800.00000 0 7695634.262 -9811703.539 22268110.142 10 0 59604 56700.00000 0 8730870.965 -7231464.623 22868206.226 10 0 59604 57600.00000 0 9970735.495 -4691507.770 23025037.920 10 0 59604 58500.00000 0 11387079.646 -2255272.230 22735671.055 10 0 59604 59400.00000 0 12941144.978 19791.614 22005793.934 10 0 59604 60300.00000 0 14585073.383 2084376.178 20849602.066 10 0 59604 61200.00000 0 16263814.098 3899122.981 19289521.928 10 0 59604 62100.00000 0 17917348.481 5436008.210 17355778.968 10 0 59604 63000.00000 0 19483140.836 6679251.737 15085817.738 10 0 59604 63900.00000 0 20898713.998 7625713.154 12523584.630 10 0 59604 64800.00000 0 22104243.121 8284759.620 9718686.144 10 0 59604 65700.00000 0 23045060.001 8677611.903 6725437.939 10 0 59604 66600.00000 0 23673963.601 8836196.578 3601822.131 10 0 59604 67500.00000 0 23953240.118 8801552.867 408372.173 10 0 59604 68400.00000 0 23856307.656 8621861.234 -2792993.812 10 0 59604 69300.00000 0 23368915.833 8350176.716 -5940168.975 10 0 59604 70200.00000 0 22489849.016 8041962.604 -8972060.076 10 0 59604 71100.00000 0 21231102.394 7752528.627 -11829772.912 10 0 59604 72000.00000 0 19617522.085 7534482.052 -14457757.629 10 0 59604 72900.00000 0 17685922.841 7435299.843 -16804891.487 10 0 59604 73800.00000 0 15483718.794 7495125.118 -18825477.721 10 0 59604 74700.00000 0 13067123.214 7744881.910 -20480140.649 10 0 59604 75600.00000 0 10498991.310 8204788.971 -21736599.293 10 0 59604 76500.00000 0 7846395.144 8883336.738 -22570304.013 10 0 59604 77400.00000 0 5178031.199 9776772.058 -22964923.283 10 0 59604 78300.00000 0 2561568.129 10869113.958 -22912670.659 10 0 59604 79200.00000 0 61044.940 12132701.356 -22414464.980 10 0 59604 80100.00000 0 -2265572.077 13529251.009 -21479920.108 10 0 59604 81000.00000 0 -4368571.906 15011382.346 -20127163.783 10 0 59604 81900.00000 0 -6208329.965 16524545.890 -18382488.542 10 0 59604 82800.00000 0 -7756711.526 18009274.541 -16279841.047 10 0 59604 83700.00000 0 -8997989.156 19403663.036 -13860159.481 10 0 59604 84600.00000 0 -9929236.502 20645970.910 -11170571.837 10 0 59604 85500.00000 0 -10560182.812 21677238.641 -8263471.020 99